Zurück zum Katalog

STARLINK-32306

AktivKommunikationVLEO
NORAD 61520·PAYLOAD·🇺🇸 United States

Gestartet Oct 15, 2024 von Cape Canaveral Space Force Station

Loading…

Nächste Überflüge (nächste 24 Stunden)

TLE

AktuellSource: CelesTrak SupGP

Epoche: Sep 14, 2026, 22:48 UTC

1 61520C 24183M   26257.95048611 -.00006440  00000+0 -20701-3 0  2573
2 61520  53.1597 341.9594 0001150  80.3419 100.0091 15.31717704    11

Verfolge STARLINK-32306 in Echtzeit mit AllMySat

Download on the App Store